StationID,Date,MaxTemp,MinTemp,Precipitation,Snowfall,SnowDepth
"USC00500685","1973-08-01",59.00,48.02,0.00,0.00,0.00
"USC00500685","1973-08-02",64.04,39.92,0.00,0.00,0.00
"USC00500685","1973-08-03",64.04,41.00,0.00,0.00,0.00
"USC00500685","1973-08-04",62.96,37.04,0.00,0.00,0.00
"USC00500685","1973-08-05",60.98,48.92,152.00,0.00,0.00
"USC00500685","1973-08-06",57.92,50.00,69.00,0.00,0.00
"USC00500685","1973-08-07",59.00,46.04,0.00,0.00,0.00
"USC00500685","1973-08-08",60.08,42.98,5.00,0.00,0.00
"USC00500685","1973-08-09",62.06,50.00,20.00,0.00,0.00
"USC00500685","1973-08-10",64.94,48.92,5.00,0.00,0.00
"USC00500685","1973-08-11",57.02,53.96,10.00,0.00,0.00
"USC00500685","1973-08-12",57.02,48.02,30.00,0.00,0.00
"USC00500685","1973-08-13",62.06,41.00,86.00,0.00,0.00
"USC00500685","1973-08-14",62.96,41.00,0.00,0.00,0.00
"USC00500685","1973-08-15",64.04,37.94,0.00,0.00,0.00
"USC00500685","1973-08-16",62.06,39.92,0.00,0.00,0.00
"USC00500685","1973-08-17",64.94,39.02,0.00,0.00,0.00
"USC00500685","1973-08-18",64.94,44.06,0.00,0.00,0.00
"USC00500685","1973-08-19",64.04,44.96,0.00,0.00,0.00
"USC00500685","1973-08-20",62.06,50.00,56.00,0.00,0.00
"USC00500685","1973-08-21",57.92,53.06,292.00,0.00,0.00
"USC00500685","1973-08-22",60.98,51.98,173.00,0.00,0.00
"USC00500685","1973-08-23",64.04,42.08,43.00,0.00,0.00
"USC00500685","1973-08-24",59.00,48.92,94.00,0.00,0.00
"USC00500685","1973-08-25",60.08,48.02,13.00,0.00,0.00
"USC00500685","1973-08-26",60.08,44.06,0.00,0.00,0.00
"USC00500685","1973-08-27",59.00,46.04,8.00,0.00,0.00
"USC00500685","1973-08-28",59.00,44.06,0.00,0.00,0.00
"USC00500685","1973-08-29",55.94,42.98,13.00,0.00,0.00
"USC00500685","1973-08-30",57.02,42.08,0.00,0.00,0.00
"USC00500685","1973-08-31",55.94,41.00,28.00,0.00,0.00
"USC00500685","1973-09-01",64.94,39.92,0.00,0.00,0.00
"USC00500685","1973-09-02",66.02,33.98,0.00,0.00,0.00
"USC00500685","1973-09-03",66.02,37.94,0.00,0.00,0.00
"USC00500685","1973-09-04",59.00,41.00,0.00,0.00,0.00
"USC00500685","1973-09-05",59.00,37.94,5.00,0.00,0.00
"USC00500685","1973-09-06",57.02,44.06,3.00,0.00,0.00
"USC00500685","1973-09-07",57.02,44.06,8.00,0.00,0.00
"USC00500685","1973-09-08",55.94,32.00,30.00,0.00,0.00
"USC00500685","1973-09-09",57.02,39.02,13.00,0.00,0.00
"USC00500685","1973-09-10",57.92,41.00,5.00,0.00,0.00
"USC00500685","1973-09-11",60.98,35.06,0.00,0.00,0.00
"USC00500685","1973-09-12",53.06,41.00,10.00,0.00,0.00
"USC00500685","1973-09-13",53.96,46.04,48.00,0.00,0.00
"USC00500685","1973-09-14",55.04,42.98,15.00,0.00,0.00
"USC00500685","1973-09-15",62.96,37.94,0.00,0.00,0.00
"USC00500685","1973-09-16",60.98,44.96,0.00,0.00,0.00
"USC00500685","1973-09-17",60.98,44.96,18.00,0.00,0.00
"USC00500685","1973-09-18",62.06,42.98,18.00,0.00,0.00
"USC00500685","1973-09-19",59.00,44.96,10.00,0.00,0.00
"USC00500685","1973-09-20",57.92,37.04,0.00,0.00,0.00
"USC00500685","1973-09-21",53.06,32.00,0.00,0.00,0.00
"USC00500685","1973-09-22",53.96,28.94,0.00,0.00,0.00
"USC00500685","1973-09-23",51.08,28.04,0.00,0.00,0.00
"USC00500685","1973-09-24",48.02,24.98,0.00,0.00,0.00
"USC00500685","1973-09-25",48.02,28.94,0.00,0.00,0.00
"USC00500685","1973-09-26",44.06,35.96,254.00,0.00,0.00
"USC00500685","1973-09-27",50.00,28.94,56.00,0.00,0.00
"USC00500685","1973-09-28",48.02,28.04,0.00,0.00,0.00
"USC00500685","1973-09-29",48.02,26.06,0.00,0.00,0.00
"USC00500685","1973-09-30",48.02,37.04,74.00,0.00,0.00
"USC00500685","1973-10-01",48.92,35.06,226.00,0.00,0.00
"USC00500685","1973-10-02",48.92,28.04,0.00,0.00,0.00
"USC00500685","1973-10-03",48.92,24.08,0.00,0.00,0.00
"USC00500685","1973-10-04",44.06,33.08,127.00,0.00,0.00
"USC00500685","1973-10-05",46.04,32.00,61.00,0.00,0.00
"USC00500685","1973-10-06",41.00,35.06,23.00,0.00,0.00
"USC00500685","1973-10-07",42.08,26.96,0.00,0.00,0.00
"USC00500685","1973-10-08",39.92,24.98,20.00,76.00,76.00
"USC00500685","1973-10-09",39.92,28.94,203.00,127.00,203.00
"USC00500685","1973-10-10",35.96,28.94,117.00,127.00,330.00
"USC00500685","1973-10-11",33.98,26.06,0.00,0.00,305.00
"USC00500685","1973-10-12",33.98,26.06,0.00,0.00,254.00
"USC00500685","1973-10-13",37.04,23.00,0.00,0.00,229.00
"USC00500685","1973-10-14",39.92,12.92,0.00,0.00,229.00
"USC00500685","1973-10-15",42.08,23.00,0.00,0.00,229.00
"USC00500685","1973-10-16",41.00,10.04,0.00,0.00,229.00
"USC00500685","1973-10-17",37.04,26.96,175.00,102.00,330.00
"USC00500685","1973-10-18",42.98,35.06,0.00,0.00,203.00
"USC00500685","1973-10-19",41.00,30.02,0.00,0.00,178.00
"USC00500685","1973-10-20",37.04,28.04,0.00,0.00,178.00
"USC00500685","1973-10-21",39.02,17.06,0.00,0.00,178.00
"USC00500685","1973-10-22",33.08,6.98,0.00,0.00,178.00
"USC00500685","1973-10-23",33.98,6.98,0.00,0.00,178.00
"USC00500685","1973-10-24",30.02,5.00,0.00,0.00,178.00
"USC00500685","1973-10-25",42.08,24.98,0.00,0.00,178.00
"USC00500685","1973-10-26",37.04,30.92,0.00,0.00,178.00
"USC00500685","1973-10-27",39.02,32.00,0.00,0.00,178.00
"USC00500685","1973-10-28",37.04,30.92,41.00,0.00,178.00
"USC00500685","1973-10-29",44.06,35.06,0.00,0.00,152.00
"USC00500685","1973-10-30",42.08,26.06,0.00,0.00,152.00
"USC00500685","1973-10-31",44.06,24.98,0.00,0.00,127.00
"USC00500685","1973-11-01",35.96,12.92,0.00,0.00,127.00
"USC00500685","1973-11-02",30.92,6.98,0.00,0.00,127.00
"USC00500685","1973-11-03",26.06,3.92,0.00,0.00,127.00
"USC00500685","1973-11-04",23.00,-0.04,0.00,0.00,127.00
"USC00500685","1973-11-05",23.00,-0.04,0.00,0.00,127.00
"USC00500685","1973-11-06",24.08,3.92,0.00,0.00,127.00
"USC00500685","1973-11-07",24.08,5.00,0.00,0.00,127.00
"USC00500685","1973-11-08",35.96,12.92,0.00,0.00,127.00
"USC00500685","1973-11-09",32.00,5.00,0.00,0.00,127.00
"USC00500685","1973-11-10",26.06,3.92,0.00,0.00,127.00
"USC00500685","1973-11-11",24.98,15.08,0.00,0.00,127.00
"USC00500685","1973-11-12",17.06,-0.94,0.00,0.00,127.00
"USC00500685","1973-11-13",19.94,-4.00,0.00,0.00,127.00
"USC00500685","1973-11-14",21.92,-5.08,0.00,0.00,127.00
"USC00500685","1973-11-15",14.00,-5.08,0.00,0.00,127.00
"USC00500685","1973-11-16",10.94,-2.02,0.00,0.00,127.00
"USC00500685","1973-11-17",12.02,-5.98,0.00,0.00,127.00
"USC00500685","1973-11-18",23.00,8.06,89.00,127.00,254.00
"USC00500685","1973-11-19",28.04,17.06,91.00,127.00,381.00
"USC00500685","1973-11-20",19.94,3.92,0.00,0.00,381.00
"USC00500685","1973-11-21",14.00,-7.96,0.00,0.00,381.00
"USC00500685","1973-11-22",24.08,12.02,147.00,127.00,508.00
"USC00500685","1973-11-23",23.00,17.96,0.00,0.00,508.00
"USC00500685","1973-11-24",30.02,19.94,107.00,76.00,584.00
"USC00500685","1973-11-25",30.02,10.04,0.00,0.00,584.00
"USC00500685","1973-11-26",28.04,-5.08,0.00,0.00,584.00
"USC00500685","1973-11-27",21.02,15.08,0.00,0.00,533.00
"USC00500685","1973-11-28",21.02,1.04,0.00,0.00,533.00
"USC00500685","1973-11-29",17.06,1.94,0.00,0.00,508.00
"USC00500685","1973-11-30",15.98,-7.06,0.00,0.00,483.00
"USC00500685","1973-12-01",19.04,-5.98,0.00,0.00,483.00
"USC00500685","1973-12-02",15.98,-16.06,0.00,0.00,483.00
"USC00500685","1973-12-03",5.00,-22.00,0.00,0.00,483.00
"USC00500685","1973-12-04",24.08,-13.00,0.00,0.00,483.00
"USC00500685","1973-12-05",28.04,17.06,0.00,0.00,457.00
"USC00500685","1973-12-06",24.08,-5.08,0.00,0.00,457.00
"USC00500685","1973-12-07",19.94,-9.94,0.00,0.00,457.00
"USC00500685","1973-12-08",30.92,-0.04,0.00,0.00,457.00
"USC00500685","1973-12-09",32.00,28.04,0.00,0.00,457.00
"USC00500685","1973-12-10",30.92,26.96,0.00,0.00,457.00
"USC00500685","1973-12-11",33.98,17.96,0.00,0.00,457.00
"USC00500685","1973-12-12",26.06,-2.02,0.00,0.00,457.00
"USC00500685","1973-12-13",3.92,-9.04,0.00,0.00,457.00
"USC00500685","1973-12-14",17.96,-9.94,0.00,0.00,457.00
"USC00500685","1973-12-15",24.08,12.02,10.00,0.00,457.00
"USC00500685","1973-12-16",26.06,-0.94,5.00,13.00,457.00
"USC00500685","1973-12-17",28.04,12.02,23.00,51.00,508.00
"USC00500685","1973-12-18",32.00,24.08,28.00,76.00,584.00
"USC00500685","1973-12-19",37.94,30.92,0.00,0.00,508.00
"USC00500685","1973-12-20",33.98,17.06,5.00,13.00,533.00
"USC00500685","1973-12-21",26.96,1.04,0.00,0.00,508.00
"USC00500685","1973-12-22",17.96,5.00,0.00,0.00,508.00
"USC00500685","1973-12-23",24.08,10.04,0.00,0.00,508.00
"USC00500685","1973-12-24",26.96,17.06,51.00,102.00,610.00
"USC00500685","1973-12-25",26.06,17.96,5.00,13.00,635.00
"USC00500685","1973-12-26",35.06,19.94,0.00,0.00,508.00
"USC00500685","1973-12-27",39.02,17.06,0.00,0.00,508.00
"USC00500685","1973-12-28",37.94,24.08,0.00,0.00,508.00
"USC00500685","1973-12-29",33.98,28.04,46.00,127.00,610.00
"USC00500685","1973-12-30",28.04,12.02,0.00,0.00,533.00
"USC00500685","1973-12-31",28.94,19.94,0.00,0.00,533.00
"USC00500685","1974-01-01",28.04,12.02,0.00,0.00,533.00
"USC00500685","1974-01-02",15.08,-2.02,0.00,0.00,533.00
"USC00500685","1974-01-03",19.94,1.04,0.00,0.00,533.00
"USC00500685","1974-01-04",8.96,-7.96,0.00,0.00,533.00
"USC00500685","1974-01-05",5.00,-7.96,0.00,0.00,533.00
"USC00500685","1974-01-06",-0.04,-9.04,0.00,0.00,533.00
"USC00500685","1974-01-07",6.98,-4.00,0.00,0.00,533.00
"USC00500685","1974-01-08",6.08,-5.08,0.00,0.00,533.00
"USC00500685","1974-01-09",15.98,3.92,0.00,0.00,533.00
"USC00500685","1974-01-10",19.04,8.06,0.00,0.00,508.00
"USC00500685","1974-01-11",17.96,-5.98,0.00,0.00,508.00
"USC00500685","1974-01-12",19.04,-2.92,0.00,0.00,508.00
"USC00500685","1974-01-13",15.98,-0.94,0.00,0.00,483.00
"USC00500685","1974-01-14",14.00,-18.04,0.00,0.00,483.00
"USC00500685","1974-01-15",17.06,-14.98,0.00,0.00,483.00
"USC00500685","1974-01-16",12.02,-0.04,0.00,0.00,483.00
"USC00500685","1974-01-17",15.08,-4.00,0.00,0.00,483.00
"USC00500685","1974-01-18",19.94,8.06,0.00,0.00,483.00
"USC00500685","1974-01-19",15.98,-9.04,0.00,0.00,483.00
"USC00500685","1974-01-20",10.04,-20.02,0.00,0.00,483.00
"USC00500685","1974-01-21",10.04,-27.94,0.00,0.00,483.00
"USC00500685","1974-01-22",19.94,10.04,5.00,13.00,508.00
"USC00500685","1974-01-23",28.04,12.92,0.00,0.00,508.00
"USC00500685","1974-01-24",24.98,-7.06,0.00,0.00,508.00
"USC00500685","1974-01-25",12.92,-9.94,0.00,0.00,508.00
"USC00500685","1974-01-26",10.04,-16.06,0.00,0.00,483.00
"USC00500685","1974-01-27",6.98,-14.08,0.00,0.00,483.00
"USC00500685","1974-01-28",15.08,-0.94,0.00,0.00,457.00
"USC00500685","1974-01-29",15.98,-5.08,0.00,0.00,457.00
"USC00500685","1974-01-30",17.06,-14.08,0.00,0.00,457.00
"USC00500685","1974-01-31",15.98,-11.92,0.00,0.00,457.00
"USC00500685","1974-02-01",19.04,-4.00,0.00,0.00,457.00
"USC00500685","1974-02-02",23.00,1.94,0.00,0.00,457.00
"USC00500685","1974-02-03",28.04,5.00,0.00,0.00,457.00
"USC00500685","1974-02-04",26.96,-0.04,3.00,13.00,483.00
"USC00500685","1974-02-05",28.94,17.06,81.00,152.00,635.00
"USC00500685","1974-02-06",32.00,23.00,43.00,64.00,686.00
"USC00500685","1974-02-07",32.00,23.00,36.00,76.00,762.00
"USC00500685","1974-02-08",35.96,23.00,5.00,0.00,711.00
"USC00500685","1974-02-09",37.94,32.00,0.00,0.00,711.00
"USC00500685","1974-02-10",37.94,30.02,84.00,127.00,838.00
"USC00500685","1974-02-11",32.00,12.92,23.00,25.00,864.00
"USC00500685","1974-02-12",23.00,-7.96,0.00,0.00,864.00
"USC00500685","1974-02-13",15.08,8.06,0.00,0.00,813.00
"USC00500685","1974-02-14",14.00,-2.02,15.00,25.00,813.00
"USC00500685","1974-02-15",17.96,10.04,20.00,38.00,838.00
"USC00500685","1974-02-16",12.92,-11.92,0.00,0.00,838.00
"USC00500685","1974-02-17",12.02,-2.02,0.00,0.00,838.00
"USC00500685","1974-02-18",15.98,-16.06,0.00,0.00,838.00
"USC00500685","1974-02-19",15.08,-18.04,0.00,0.00,838.00
"USC00500685","1974-02-20",23.00,5.00,0.00,0.00,762.00
"USC00500685","1974-02-21",21.92,-4.00,0.00,0.00,762.00
"USC00500685","1974-02-22",21.92,10.04,0.00,0.00,711.00
"USC00500685","1974-02-23",28.04,10.04,0.00,0.00,711.00
"USC00500685","1974-02-24",30.02,5.00,0.00,0.00,711.00
"USC00500685","1974-02-25",28.04,3.92,0.00,0.00,686.00
"USC00500685","1974-02-26",33.98,19.94,0.00,0.00,686.00
"USC00500685","1974-02-27",30.92,8.06,25.00,13.00,711.00
"USC00500685","1974-02-28",26.06,6.98,0.00,0.00,686.00
"USC00500685","1974-03-01",24.98,-7.96,0.00,0.00,686.00
"USC00500685","1974-03-02",17.06,-9.04,41.00,64.00,762.00
"USC00500685","1974-03-03",24.98,-4.00,41.00,51.00,787.00
"USC00500685","1974-03-04",26.06,-4.00,5.00,13.00,787.00
"USC00500685","1974-03-05",26.06,-20.92,0.00,0.00,762.00
"USC00500685","1974-03-06",17.96,-20.02,0.00,0.00,762.00
"USC00500685","1974-03-07",17.06,-0.94,0.00,0.00,711.00
"USC00500685","1974-03-08",24.08,8.96,0.00,0.00,610.00
"USC00500685","1974-03-09",26.96,8.06,0.00,0.00,584.00
"USC00500685","1974-03-10",30.02,1.94,0.00,0.00,559.00
"USC00500685","1974-03-11",30.02,10.94,0.00,0.00,559.00
"USC00500685","1974-03-12",30.92,-18.04,0.00,0.00,559.00
"USC00500685","1974-03-13",24.98,-5.08,0.00,0.00,559.00
"USC00500685","1974-03-14",33.98,19.04,0.00,0.00,559.00
"USC00500685","1974-03-15",37.94,24.08,0.00,0.00,559.00
"USC00500685","1974-03-16",37.94,-0.04,0.00,0.00,559.00
"USC00500685","1974-03-17",32.00,-2.02,46.00,51.00,610.00
"USC00500685","1974-03-18",33.98,-2.02,0.00,0.00,610.00
"USC00500685","1974-03-19",37.94,26.06,64.00,114.00,686.00
"USC00500685","1974-03-20",39.92,24.98,0.00,0.00,635.00
"USC00500685","1974-03-21",42.98,33.98,0.00,0.00,559.00
"USC00500685","1974-03-22",46.94,30.92,0.00,0.00,508.00
"USC00500685","1974-03-23",44.96,26.96,0.00,0.00,483.00
"USC00500685","1974-03-24",48.02,33.08,0.00,0.00,457.00
"USC00500685","1974-03-25",51.98,30.02,0.00,0.00,406.00
"USC00500685","1974-03-26",50.00,21.02,0.00,0.00,356.00
"USC00500685","1974-03-27",50.00,17.06,0.00,0.00,356.00
"USC00500685","1974-03-28",44.06,26.96,0.00,0.00,356.00
"USC00500685","1974-03-29",41.00,26.06,0.00,0.00,356.00
"USC00500685","1974-03-30",39.92,30.92,0.00,0.00,356.00
"USC00500685","1974-03-31",39.92,30.02,0.00,0.00,356.00
"USC00500685","1974-04-01",42.08,24.98,0.00,0.00,356.00
"USC00500685","1974-04-02",39.02,14.00,0.00,0.00,356.00
"USC00500685","1974-04-03",39.92,23.00,0.00,0.00,356.00
"USC00500685","1974-04-04",44.06,17.96,0.00,0.00,330.00
"USC00500685","1974-04-05",44.06,26.06,0.00,0.00,330.00
"USC00500685","1974-04-06",46.04,28.94,0.00,0.00,330.00
"USC00500685","1974-04-07",42.98,26.06,0.00,0.00,330.00
"USC00500685","1974-04-08",42.98,28.94,0.00,0.00,305.00
"USC00500685","1974-04-09",39.92,32.00,0.00,0.00,305.00
"USC00500685","1974-04-10",44.06,28.94,0.00,0.00,279.00
"USC00500685","1974-04-11",44.96,26.06,0.00,0.00,254.00
"USC00500685","1974-04-12",41.00,24.08,0.00,0.00,254.00
"USC00500685","1974-04-13",44.06,21.92,0.00,0.00,229.00
"USC00500685","1974-04-14",42.98,30.92,0.00,0.00,229.00
"USC00500685","1974-04-15",44.06,32.00,0.00,0.00,203.00
"USC00500685","1974-04-16",46.94,35.96,0.00,0.00,178.00
"USC00500685","1974-04-17",46.04,33.08,0.00,0.00,152.00
"USC00500685","1974-04-18",48.02,30.92,0.00,0.00,102.00
"USC00500685","1974-04-19",46.04,24.08,0.00,0.00,51.00
"USC00500685","1974-04-20",42.98,26.96,0.00,0.00,0.00
"USC00500685","1974-04-21",51.08,28.04,0.00,0.00,0.00
"USC00500685","1974-04-22",50.00,24.98,0.00,0.00,0.00
"USC00500685","1974-04-23",39.02,30.92,274.00,0.00,0.00
"USC00500685","1974-04-24",44.96,33.98,178.00,0.00,0.00
"USC00500685","1974-04-25",42.98,26.06,0.00,0.00,0.00
"USC00500685","1974-04-26",51.98,26.06,0.00,0.00,0.00
"USC00500685","1974-04-27",51.98,26.06,13.00,0.00,0.00
"USC00500685","1974-04-28",51.98,28.04,0.00,0.00,0.00
"USC00500685","1974-04-29",60.08,28.04,0.00,0.00,0.00
"USC00500685","1974-04-30",62.06,26.96,0.00,0.00,0.00
"USC00500685","1974-05-01",62.06,30.02,0.00,0.00,0.00
"USC00500685","1974-05-02",55.94,28.94,0.00,0.00,0.00
"USC00500685","1974-05-03",53.96,26.96,0.00,0.00,0.00
"USC00500685","1974-05-04",57.02,30.02,0.00,0.00,0.00
"USC00500685","1974-05-05",53.96,39.02,0.00,0.00,0.00
"USC00500685","1974-05-06",57.92,28.94,0.00,0.00,0.00
"USC00500685","1974-05-07",59.00,26.96,0.00,0.00,0.00
"USC00500685","1974-05-08",55.94,30.02,0.00,0.00,0.00
"USC00500685","1974-05-09",53.06,28.94,0.00,0.00,0.00
"USC00500685","1974-05-10",55.94,35.96,69.00,0.00,0.00
"USC00500685","1974-05-11",53.96,33.98,0.00,0.00,0.00
"USC00500685","1974-05-12",51.08,32.00,0.00,0.00,0.00
"USC00500685","1974-05-13",51.98,32.00,0.00,0.00,0.00
"USC00500685","1974-05-14",57.02,37.04,0.00,0.00,0.00
"USC00500685","1974-05-15",59.00,33.98,0.00,0.00,0.00
"USC00500685","1974-05-16",66.02,37.04,0.00,0.00,0.00
"USC00500685","1974-05-17",55.04,33.08,0.00,0.00,0.00
"USC00500685","1974-05-18",51.98,32.00,43.00,0.00,0.00
"USC00500685","1974-05-19",55.94,30.92,0.00,0.00,0.00
"USC00500685","1974-05-20",57.92,35.06,0.00,0.00,0.00
"USC00500685","1974-05-21",59.00,30.92,0.00,0.00,0.00
"USC00500685","1974-05-22",60.98,35.96,0.00,0.00,0.00
"USC00500685","1974-05-23",68.00,35.06,0.00,0.00,0.00
"USC00500685","1974-05-24",68.00,41.00,0.00,0.00,0.00
"USC00500685","1974-05-25",73.04,33.08,0.00,0.00,0.00
"USC00500685","1974-05-26",73.04,32.00,0.00,0.00,0.00
"USC00500685","1974-05-27",69.08,46.04,0.00,0.00,0.00
"USC00500685","1974-05-28",68.00,46.04,0.00,0.00,0.00
"USC00500685","1974-05-29",62.96,32.00,0.00,0.00,0.00
"USC00500685","1974-05-30",64.04,35.06,0.00,0.00,0.00
"USC00500685","1974-05-31",62.06,35.06,0.00,0.00,0.00
"USC00500685","1974-06-01",60.08,37.94,0.00,0.00,0.00
"USC00500685","1974-06-02",62.06,41.00,0.00,0.00,0.00
"USC00500685","1974-06-03",62.06,39.92,0.00,0.00,0.00
"USC00500685","1974-06-04",57.92,41.00,0.00,0.00,0.00
"USC00500685","1974-06-05",59.00,42.98,0.00,0.00,0.00
"USC00500685","1974-06-06",60.98,39.02,0.00,0.00,0.00
"USC00500685","1974-06-07",59.00,39.02,41.00,0.00,0.00
"USC00500685","1974-06-08",62.96,42.98,0.00,0.00,0.00
"USC00500685","1974-06-09",69.98,42.98,0.00,0.00,0.00
"USC00500685","1974-06-10",73.94,42.98,0.00,0.00,0.00
"USC00500685","1974-06-11",75.02,39.92,0.00,0.00,0.00
"USC00500685","1974-06-12",66.92,39.02,0.00,0.00,0.00
"USC00500685","1974-06-13",60.98,46.04,0.00,0.00,0.00
"USC00500685","1974-06-14",62.96,39.02,0.00,0.00,0.00
"USC00500685","1974-06-15",64.04,37.04,0.00,0.00,0.00
"USC00500685","1974-06-16",62.06,35.96,0.00,0.00,0.00
"USC00500685","1974-06-17",62.06,41.00,0.00,0.00,0.00
"USC00500685","1974-06-18",59.00,44.06,0.00,0.00,0.00
"USC00500685","1974-06-19",55.04,44.06,208.00,0.00,0.00
"USC00500685","1974-06-20",62.06,35.06,0.00,0.00,0.00
"USC00500685","1974-06-21",64.04,37.04,0.00,0.00,0.00
"USC00500685","1974-06-22",62.96,41.00,0.00,0.00,0.00
"USC00500685","1974-06-23",71.06,44.06,0.00,0.00,0.00
"USC00500685","1974-06-24",73.04,44.96,0.00,0.00,0.00
"USC00500685","1974-06-25",64.94,44.06,0.00,0.00,0.00
"USC00500685","1974-06-26",69.08,41.00,0.00,0.00,0.00
"USC00500685","1974-06-27",69.08,33.08,0.00,0.00,0.00
"USC00500685","1974-06-28",69.08,39.92,0.00,0.00,0.00
"USC00500685","1974-06-29",69.08,41.00,0.00,0.00,0.00
"USC00500685","1974-06-30",73.04,42.08,0.00,0.00,0.00
"USC00500685","1974-07-01",77.00,51.98,0.00,0.00,0.00
"USC00500685","1974-07-02",78.98,46.04,0.00,0.00,0.00
"USC00500685","1974-07-03",64.04,44.06,0.00,0.00,0.00
"USC00500685","1974-07-04",60.98,48.02,0.00,0.00,0.00
"USC00500685","1974-07-05",62.06,42.98,0.00,0.00,0.00
"USC00500685","1974-07-06",62.06,42.08,0.00,0.00,0.00
"USC00500685","1974-07-07",60.98,51.08,0.00,0.00,0.00
"USC00500685","1974-07-08",64.94,48.92,0.00,0.00,0.00
"USC00500685","1974-07-09",66.02,46.94,15.00,0.00,0.00
"USC00500685","1974-07-10",64.94,48.92,0.00,0.00,0.00
"USC00500685","1974-07-11",68.00,48.02,104.00,0.00,0.00
"USC00500685","1974-07-12",66.02,37.94,0.00,0.00,0.00
"USC00500685","1974-07-13",64.94,48.02,0.00,0.00,0.00
"USC00500685","1974-07-14",64.04,46.04,0.00,0.00,0.00
"USC00500685","1974-07-15",64.94,48.92,74.00,0.00,0.00
"USC00500685","1974-07-16",64.04,39.92,0.00,0.00,0.00
"USC00500685","1974-07-17",71.06,44.06,0.00,0.00,0.00
"USC00500685","1974-07-18",73.04,42.98,0.00,0.00,0.00
"USC00500685","1974-07-19",60.08,51.98,0.00,0.00,0.00
"USC00500685","1974-07-20",59.00,50.00,137.00,0.00,0.00
"USC00500685","1974-07-21",57.92,46.04,58.00,0.00,0.00
"USC00500685","1974-07-22",62.06,46.94,5.00,0.00,0.00
"USC00500685","1974-07-23",66.02,44.06,0.00,0.00,0.00
"USC00500685","1974-07-24",64.94,48.02,0.00,0.00,0.00
"USC00500685","1974-07-25",64.04,48.92,0.00,0.00,0.00
"USC00500685","1974-07-26",64.04,46.94,0.00,0.00,0.00
"USC00500685","1974-07-27",68.00,46.04,0.00,0.00,0.00
"USC00500685","1974-07-28",73.04,42.98,0.00,0.00,0.00
"USC00500685","1974-07-29",66.92,46.94,0.00,0.00,0.00
"USC00500685","1974-07-30",68.00,46.04,0.00,0.00,0.00
"USC00500685","1974-07-31",66.92,46.94,0.00,0.00,0.00
"USC00500685","1974-08-01",69.98,39.92,0.00,0.00,0.00
"USC00500685","1974-08-02",66.02,42.08,0.00,0.00,0.00
"USC00500685","1974-08-03",66.92,42.08,0.00,0.00,0.00
"USC00500685","1974-08-04",69.98,46.04,0.00,0.00,0.00
"USC00500685","1974-08-05",68.00,42.98,0.00,0.00,0.00
"USC00500685","1974-08-06",64.94,44.06,0.00,0.00,0.00
"USC00500685","1974-08-07",64.94,51.08,56.00,0.00,0.00
"USC00500685","1974-08-08",60.98,50.00,81.00,0.00,0.00
"USC00500685","1974-08-09",60.08,48.02,5.00,0.00,0.00
"USC00500685","1974-08-10",60.98,37.94,0.00,0.00,0.00
"USC00500685","1974-08-11",66.92,48.02,0.00,0.00,0.00
"USC00500685","1974-08-12",64.94,42.98,0.00,0.00,0.00
"USC00500685","1974-08-13",64.94,51.98,0.00,0.00,0.00
"USC00500685","1974-08-14",64.94,48.02,0.00,0.00,0.00
"USC00500685","1974-08-15",71.06,44.96,0.00,0.00,0.00
"USC00500685","1974-08-16",71.96,46.94,0.00,0.00,0.00
"USC00500685","1974-08-17",73.94,50.00,0.00,0.00,0.00
"USC00500685","1974-08-18",73.04,44.06,0.00,0.00,0.00
"USC00500685","1974-08-19",73.94,42.98,0.00,0.00,0.00
"USC00500685","1974-08-20",73.04,48.02,0.00,0.00,0.00
"USC00500685","1974-08-21",71.96,42.08,0.00,0.00,0.00
"USC00500685","1974-08-22",69.98,42.98,0.00,0.00,0.00
"USC00500685","1974-08-23",62.96,33.08,0.00,0.00,0.00
"USC00500685","1974-08-24",57.02,42.08,165.00,0.00,0.00
"USC00500685","1974-08-25",55.04,42.08,20.00,0.00,0.00
"USC00500685","1974-08-26",57.02,44.96,13.00,0.00,0.00
"USC00500685","1974-08-27",57.92,48.92,287.00,0.00,0.00
"USC00500685","1974-08-28",66.02,46.04,91.00,0.00,0.00
"USC00500685","1974-08-29",66.92,48.92,23.00,0.00,0.00
"USC00500685","1974-08-30",73.04,51.98,0.00,0.00,0.00
"USC00500685","1974-08-31",73.94,53.96,0.00,0.00,0.00
"USC00500685","1974-09-01",69.98,51.98,33.00,0.00,0.00
"USC00500685","1974-09-02",62.06,48.02,0.00,0.00,0.00
"USC00500685","1974-09-03",62.96,51.08,0.00,0.00,0.00
"USC00500685","1974-09-04",71.96,46.04,0.00,0.00,0.00
"USC00500685","1974-09-05",71.96,37.94,0.00,0.00,0.00
"USC00500685","1974-09-06",64.94,33.98,0.00,0.00,0.00
"USC00500685","1974-09-07",64.94,35.06,0.00,0.00,0.00
"USC00500685","1974-09-08",71.06,35.06,0.00,0.00,0.00
"USC00500685","1974-09-09",66.92,35.06,0.00,0.00,0.00
"USC00500685","1974-09-10",60.98,33.98,13.00,0.00,0.00
"USC00500685","1974-09-11",60.08,46.04,117.00,0.00,0.00
"USC00500685","1974-09-12",59.00,50.00,244.00,0.00,0.00
"USC00500685","1974-09-13",59.00,46.04,99.00,0.00,0.00
"USC00500685","1974-09-14",60.08,48.02,140.00,0.00,0.00
"USC00500685","1974-09-15",57.92,48.02,130.00,0.00,0.00
"USC00500685","1974-09-16",55.04,37.94,5.00,0.00,0.00
"USC00500685","1974-09-17",55.94,44.06,30.00,0.00,0.00
"USC00500685","1974-09-18",57.02,42.98,30.00,0.00,0.00
"USC00500685","1974-09-19",53.96,44.96,33.00,0.00,0.00
"USC00500685","1974-09-20",57.02,48.02,15.00,0.00,0.00
"USC00500685","1974-09-21",55.94,50.00,8.00,0.00,0.00
"USC00500685","1974-09-22",55.94,48.02,0.00,0.00,0.00
"USC00500685","1974-09-23",53.96,44.06,94.00,0.00,0.00
"USC00500685","1974-09-24",51.08,42.98,117.00,0.00,0.00
"USC00500685","1974-09-25",55.04,44.06,18.00,0.00,0.00
"USC00500685","1974-09-26",55.04,39.92,56.00,0.00,0.00
"USC00500685","1974-09-27",57.02,33.98,0.00,0.00,0.00
"USC00500685","1974-09-28",55.94,39.92,0.00,0.00,0.00
"USC00500685","1974-09-29",55.94,26.96,0.00,0.00,0.00